Simultaneous Nadir Overpasses (SNOs) Predictions

Prediction of SNOs between AQUA and METOP-A Satellite Orbit:

Table of predicted SNOs for the next 14.0 days since TLE Epoch: 12/9/2011
Index Date Time (AQUA) AQUA Lat,Lon METOP-A Lat,Lon Distance(km) Time Diff (sec)
1 12/10/2011 04:03:21 70.21, 119.23 70.27, 106.87 464.00 9
2 12/10/2011 04:53:51 -73.69, -79.30 -73.69, -79.21 2.78 64
3 12/10/2011 05:43:20 73.76, 88.18 73.75, 88.26 2.84 6
4 12/10/2011 06:32:51 -74.05,-104.82 -74.07,-103.64 36.18 70
5 12/12/2011 23:37:48 70.75,-175.14 70.73, 174.03 396.89 23
6 12/13/2011 00:28:08 -73.67, -12.82 -73.68, -12.82 1.81 59
7 12/13/2011 01:17:37 73.74, 154.65 73.74, 154.65 0.24 11
8 12/13/2011 02:07:12 -74.23, -38.82 -74.20, -36.88 58.79 68
9 12/15/2011 19:12:10 70.96,-109.05 70.98,-119.14 365.31 29
10 12/15/2011 20:02:26 -73.66, 53.61 -73.67, 53.57 1.72 56
11 12/15/2011 20:51:55 73.74,-138.92 73.73,-138.96 1.92 14
12 12/15/2011 21:41:32 -74.32, 27.38 -74.29, 29.76 71.65 67
13 12/18/2011 14:46:32 71.03, -42.74 71.01, -52.66 358.33 30
14 12/18/2011 15:36:47 -73.67, 120.01 -73.65, 119.94 3.01 55
15 12/18/2011 16:26:16 73.75, -72.53 73.76, -72.47 2.04 14
16 12/18/2011 17:15:53 -74.33, 93.78 -74.32, 96.26 74.54 67
17 12/21/2011 10:20:53 70.95, 23.79 70.94, 13.63 368.52 28
18 12/21/2011 11:11:10 -73.69,-173.63 -73.68,-173.57 2.71 57
19 12/21/2011 12:00:38 73.73, -6.07 73.73, -6.10 1.47 14




NCC Satellite Simultaneous Nadir Overpasses (SNOs) Prediction Service
